{"data":{"norad_id":59296,"epoch":"2026-05-25T00:27:44.712000Z","epoch_age_seconds":73014,"freshness":"FRESH","line1":"1 59296U 24056A   26145.01926750  .00004765  00000+0  18260-3 0  9997","line2":"2 59296  43.0039 155.6987 0001827 294.6283  65.4378 15.27578650122874","mean_motion":15.2757865,"eccentricity":0.0001827,"inclination_deg":43.0039,"raan_deg":155.6987,"arg_perigee_deg":294.6283,"mean_anomaly_deg":65.4378,"bstar":0.0001826,"rev_number":12287,"period_min":94.266832022037,"perigee_km":481.79959899,"apogee_km":484.30667786658,"semimajor_km":6861.1901384283,"source":"CELESTRAK","updated_at":"2026-05-25T13:38:18.896373Z"}}